Location: Aalsum
(53.3404°N, 6.0062°E)
Time: 06:16:14
(UTC+00:00)

Cosmos 1992 Rocket - Pass Details

Date: 28 January 2023
Orbit: 758 x 764 km, 74.0° (Epoch: 24 March)

Event Time Altitude Azimuth Distance (km) Brightness Sun altitude
Rises 16:37:52 0° 333° (NNW) 3,233 7.3 -4.4°
Reaches altitude 10° 16:40:15 10° 334° (NNW) 2,303 6.5 -4.7°
Maximum altitude 16:45:30 89° 64° (ENE) 767 4.0 -5.4°
Drops below altitude 10° 16:50:41 10° 155° (SSE) 2,285 6.5 -6.1°
Sets 16:53:03 0° 156° (SSE) 3,207 7.2 -6.5°
